Location: Wien
(48.2082°N, 16.3738°E)
Time: 17:48:59
(UTC+02:00)

MOZHAYETS 4 - Pass Details

Date: 26 March 2019
Orbit: 661 x 681 km, 98.1° (Epoch: 18 October)

Event Time Altitude Azimuth Distance (km) Brightness Sun altitude
Exits shadow 02:29:42 14° 332° (NNW) 1,851 10.1 -30.2°
Drops below altitude 10° 02:30:23 10° 335° (NNW) 2,110 10.5 -30.1°
Sets 02:32:43 0° 342° (NNW) 3,033 11.4 -29.9°
